Location: Aix-en-Ergny
(50.5839°N, 1.9996°E)
Time: 23:32:32
(UTC+00:00)

USA 234 - Pass Details

Date: 23 October 2019
Orbit: 1102 x 1106 km, 123.0° (Epoch: 01 November)

Event Time Altitude Azimuth Distance (km) Brightness Sun altitude
Rises 04:33:43 0° 143° (SE) 3,910 6.6 -18.6°
Reaches altitude 10° 04:36:17 10° 149° (SSE) 2,954 5.9 -18.2°
Maximum altitude 04:42:34 49° 223° (SW) 1,391 3.5 -17.2°
Enters shadow 04:46:42 22° 288° (WNW) 2,210 4.3 -16.6°
